Tillbaka till svenska Fidonet
English   Information   Debug  
FILM   0/18
FNEWS_PUBLISH   4990
FN_SYSOP   42232
FN_SYSOP_OLD1   71952
FTP_FIDO   0/2
FTSC_PUBLIC   0/13976
FUNNY   0/4886
GENEALOGY.EUR   0/71
GET_INFO   105
GOLDED   0/408
HAM   7834/16727
HOLYSMOKE   0/6791
HOT_SITES   0/1
HTMLEDIT   0/71
HUB203   466
HUB_100   264
HUB_400   39
HUMOR   0/29
IC   1761/2851
INTERNET   0/424
INTERUSER   0/3
IP_CONNECT   719
JAMNNTPD   0/233
JAMTLAND   0/47
KATTY_KORNER   0/41
LAN   0/16
LINUX-USER   0/19
LINUXHELP   0/1155
LINUX   0/22395
LINUX_BBS   0/957
mail   18.68
mail_fore_ok   249
MENSA   0/341
MODERATOR   0/102
MONTE   0/992
MOSCOW_OKLAHOMA   0/1245
MUFFIN   0/783
MUSIC   0/321
N203_STAT   938
N203_SYSCHAT   313
NET203   321
NET204   69
NET_DEV   0/10
NORD.ADMIN   0/101
NORD.CHAT   0/2572
NORD.FIDONET   189
NORD.HARDWARE   0/28
NORD.KULTUR   0/114
NORD.PROG   0/32
NORD.SOFTWARE   0/88
NORD.TEKNIK   0/58
NORD   0/453
OCCULT_CHAT   0/93
OS2BBS   0/787
OS2DOSBBS   0/580
OS2HW   0/42
OS2INET   0/37
OS2LAN   0/134
OS2PROG   0/36
OS2REXX   0/113
OS2USER-L   207
OS2   0/4831
OSDEBATE   0/18996
PASCAL   0/490
PERL   0/457
PHP   0/45
POINTS   0/405
POLITICS   0/29554
POL_INC   11683/14731
PSION   103
R20_ADMIN   1133
R20_AMATORRADIO   0/2
R20_BEST_OF_FIDONET   16
R20_CHAT   0/897
R20_DEPP   0/3
R20_DEV   400
R20_ECHO2   1891
R20_ECHOPRES   0/35
R20_ESTAT   0/719
R20_FIDONETPROG...
...RAM.MYPOINT
  0/2
R20_FIDONETPROGRAM   0/22
R20_FIDONET   0/248
R20_FILEFIND   0/24
R20_FILEFOUND   0/22
R20_HIFI   0/3
R20_INFO2   3784
R20_INTERNET   0/12940
R20_INTRESSE   0/60
R20_INTR_KOM   0/99
R20_KANDIDAT.CHAT   42
R20_KANDIDAT   28
R20_KOM_DEV   112
R20_KONTROLL   0/13360
R20_KORSET   0/18
R20_LOKALTRAFIK   0/24
R20_MODERATOR   0/1852
R20_NC   76
R20_NET200   245
R20_NETWORK.OTH...
...ERNETS
  0/13
R20_OPERATIVSYS...
...TEM.LINUX
  0/44
R20_PROGRAMVAROR   0/1
R20_REC2NEC   534
R20_SFOSM   0/341
R20_SF   0/108
R20_SPRAK.ENGLISH   0/1
R20_SQUISH   107
R20_TEST   2
R20_WORST_OF_FIDONET   20
RAR   0/9
RA_MULTI   106
RA_UTIL   0/162
REGCON.EUR   0/2069
REGCON   0/13
SCIENCE   0/1206
SF   0/239
SHAREWARE_SUPPORT   0/5146
SHAREWRE   0/14
SIMPSONS   0/169
STATS_OLD1   0/2539.065
STATS_OLD2   0/2530
STATS_OLD3   0/2395.095
STATS_OLD4   0/1692.25
SURVIVOR   0/495
SYSOPS_CORNER   0/3
SYSOP   0/84
TAGLINES   0/112
TEAMOS2   0/4530
TECH   0/2617
TEST.444   0/105
TRAPDOOR   0/19
TREK   0/755
TUB   0/290
UFO   0/40
UNIX   0/1316
USA_EURLINK   0/102
USR_MODEMS   0/1
VATICAN   0/2740
VIETNAM_VETS   0/14
VIRUS   0/378
VIRUS_INFO   108/201
VISUAL_BASIC   0/473
WHITEHOUSE   0/5187
WIN2000   0/101
WIN32   0/30
WIN95   0/4291
WIN95_OLD1   0/70272
WINDOWS   1416/1517
WWB_SYSOP   0/419
WWB_TECH   0/810
ZCC-PUBLIC   0/1
ZEC   4

 
4DOS   0/134
ABORTION   0/7
ALASKA_CHAT   0/506
ALLFIX_FILE   0/1313
ALLFIX_FILE_OLD1   0/7997
ALT_DOS   0/152
AMATEUR_RADIO   0/1039
AMIGASALE   0/14
AMIGA   0/331
AMIGA_INT   0/1
AMIGA_PROG   0/20
AMIGA_SYSOP   0/26
ANIME   0/15
ARGUS   0/924
ASCII_ART   0/340
ASIAN_LINK   0/651
ASTRONOMY   0/417
AUDIO   0/92
AUTOMOBILE_RACING   0/105
BABYLON5   0/17862
BAG   135
BATPOWER   0/361
BBBS.ENGLISH   0/382
BBSLAW   0/109
BBS_ADS   0/5290
BBS_INTERNET   0/507
BIBLE   0/3563
BINKD   0/1119
BINKLEY   0/215
BLUEWAVE   0/2173
CABLE_MODEMS   12/25
CBM   0/46
CDRECORD   0/66
CDROM   0/20
CLASSIC_COMPUTER   0/378
COMICS   0/15
CONSPRCY   0/899
COOKING   42040
COOKING_OLD1   0/24719
COOKING_OLD2   37309/40862
COOKING_OLD3   0/37489
COOKING_OLD4   21215/35496
COOKING_OLD5   9370
C_ECHO   0/189
C_PLUSPLUS   0/31
DIRTY_DOZEN   0/201
DOORGAMES   0/2333
DOS_INTERNET   0/196
duplikat   6102
ECHOLIST   0/18295
EC_SUPPORT   0/318
ELECTRONICS   0/359
ELEKTRONIK.GER   1534
ENET.LINGUISTIC   0/13
ENET.POLITICS   0/4
ENET.SOFT   0/11701
ENET.SYSOP   34336
ENET.TALKS   0/32
ENGLISH_TUTOR   0/2000
EVOLUTION   776/1335
FDECHO   0/217
FDN_ANNOUNCE   1791/7068
FIDONEWS   25129
FIDONEWS_OLD1   0/49742
FIDONEWS_OLD2   0/35949
FIDONEWS_OLD3   0/30874
FIDONEWS_OLD4   0/37224
FIDO_SYSOP   12973
FIDO_UTIL   0/180
FILEFIND   0/209
FILEGATE   0/212
Möte HAM, 16727 texter
 lista första sista föregående nästa
Text 4422, 908 rader
Skriven 2011-04-07 23:01:31 av Amsat List (1:323/120.0)
Ärende: [keps]  orb11097.amsa
=============================
[keps]  orb11097.amsa

Return-Path: <keps-bounces@amsat.org>
X-Rcpt: craig.healy@chowda.com
X-UIDL: 1302229963.1403

SB KEPS @ AMSAT  $ORB11097.O
Orbital Elements  11097.OSCAR

HR AMSAT ORBITAL ELEMENTS FOR OSCAR SATELLITES
FROM WA5QGD FORT WORTH,TX April 7, 2011
Send Subscribe/unsubscribe to KEPS at http://www.amsat.org/mailman/listinfo/kep
BID: ORB11097.O
TO ALL RADIO AMATEURS BT

Satellite: AO-07
Catalog number: 07530
Epoch time:      11097.60760453
Element set:      47
Inclination:      101.3942 deg
RA of node:       106.9331 deg
Eccentricity:    0.0012093
Arg of perigee:   058.1726 deg
Mean anomaly:     302.0519 deg
Mean motion:   12.53581871 rev/day
Decay rate:       -2.7e-07 rev/day^2
Epoch rev:           66534
Checksum:              275

Satellite: FO-29
Catalog number: 24278
Epoch time:      11096.91526350
Element set:    0557
Inclination:      098.5371 deg
RA of node:       250.6848 deg
Eccentricity:    0.0351424
Arg of perigee:   082.0218 deg
Mean anomaly:     282.0632 deg
Mean motion:   13.52959291 rev/day
Decay rate:       -5.2e-07 rev/day^2
Epoch rev:           72282
Checksum:              314

Satellite: SO-33
Catalog number: 25509
Epoch time:      11097.71557298
Element set:     939
Inclination:      031.4368 deg
RA of node:       282.8880 deg
Eccentricity:    0.0353531
Arg of perigee:   345.2936 deg
Mean anomaly:     013.7589 deg
Mean motion:   14.28382621 rev/day
Decay rate:       4.51e-06 rev/day^2
Epoch rev:           65019
Checksum:              334

Satellite: RS-22
Catalog number: 27939
Epoch time:      11097.73664501
Element set:     145
Inclination:      097.8556 deg
RA of node:       315.0714 deg
Eccentricity:    0.0012915
Arg of perigee:   204.3133 deg
Mean anomaly:     155.7464 deg
Mean motion:   14.63546653 rev/day
Decay rate:       5.96e-06 rev/day^2
Epoch rev:           40203
Checksum:              303

Satellite: VO-52
Catalog number: 28650
Epoch time:      11096.79815065
Element set:     761
Inclination:      097.6502 deg
RA of node:       143.0993 deg
Eccentricity:    0.0027714
Arg of perigee:   037.9618 deg
Mean anomaly:     322.3505 deg
Mean motion:   14.81980029 rev/day
Decay rate:      1.013e-05 rev/day^2
Epoch rev:           32017
Checksum:              302

Satellite: SO-67
Catalog number: 35870
Epoch time:      11097.75639126
Element set:     719
Inclination:      097.2878 deg
RA of node:       143.4355 deg
Eccentricity:    0.0004094
Arg of perigee:   128.2691 deg
Mean anomaly:     008.6721 deg
Mean motion:   15.21565322 rev/day
Decay rate:      4.254e-05 rev/day^2
Epoch rev:            8623
Checksum:              321

Satellite: HO-68
Catalog number: 36122
Epoch time:      11097.70335782
Element set:     264
Inclination:      100.4228 deg
RA of node:       159.5632 deg
Eccentricity:    0.0007817
Arg of perigee:   029.5128 deg
Mean anomaly:     330.6423 deg
Mean motion:   13.16285059 rev/day
Decay rate:       -4.4e-07 rev/day^2
Epoch rev:            6296
Checksum:              295

/EX
SB KEPS @ AMSAT  $ORB11097.D
Orbital Elements  11097.MICROS

HR AMSAT ORBITAL ELEMENTS FOR THE MICROSATS
FROM WA5QGD FORT WORTH,TX April 7, 2011
Send Subscribe/unsubscribe to KEPS at http://www.amsat.org/mailman/listinfo/kep
BID: ORB11097.D
TO ALL RADIO AMATEURS BT

Satellite: UO-11
Catalog number: 14781
Epoch time:      11097.82413601
Element set:     515
Inclination:      098.0132 deg
RA of node:       154.7311 deg
Eccentricity:    0.0009447
Arg of perigee:   012.9797 deg
Mean anomaly:     347.1655 deg
Mean motion:   14.79929142 rev/day
Decay rate:       6.09e-06 rev/day^2
Epoch rev:           45538
Checksum:              310

Satellite: AO-16
Catalog number: 20439
Epoch time:      11096.95750084
Element set:    0159
Inclination:      098.3768 deg
RA of node:       048.9827 deg
Eccentricity:    0.0011538
Arg of perigee:   019.2194 deg
Mean anomaly:     340.9417 deg
Mean motion:   14.31907260 rev/day
Decay rate:       1.68e-06 rev/day^2
Epoch rev:           10742
Checksum:              318

Satellite: LO-19
Catalog number: 20442
Epoch time:      11096.97831533
Element set:    0079
Inclination:      098.3398 deg
RA of node:       053.6308 deg
Eccentricity:    0.0012215
Arg of perigee:   012.8454 deg
Mean anomaly:     347.3035 deg
Mean motion:   14.32134438 rev/day
Decay rate:       2.40e-06 rev/day^2
Epoch rev:           10760
Checksum:              282

Satellite: AO-27
Catalog number: 22825
Epoch time:      11096.88820116
Element set:    0793
Inclination:      098.5252 deg
RA of node:       042.8347 deg
Eccentricity:    0.0009217
Arg of perigee:   122.0506 deg
Mean anomaly:     238.1568 deg
Mean motion:   14.29336752 rev/day
Decay rate:       2.52e-06 rev/day^2
Epoch rev:           91400
Checksum:              300

Satellite: IO-26
Catalog number: 22826
Epoch time:      11097.74056310
Element set:     530
Inclination:      098.5201 deg
RA of node:       044.1667 deg
Eccentricity:    0.0009639
Arg of perigee:   113.7726 deg
Mean anomaly:     246.4474 deg
Mean motion:   14.29597358 rev/day
Decay rate:       1.44e-06 rev/day^2
Epoch rev:           91424
Checksum:              310

Satellite: GO-32
Catalog number: 25397
Epoch time:      11096.62385528
Element set:    0449
Inclination:      098.3232 deg
RA of node:       093.0249 deg
Eccentricity:    0.0002225
Arg of perigee:   113.6169 deg
Mean anomaly:     246.5236 deg
Mean motion:   14.23201346 rev/day
Decay rate:      -1.13e-06 rev/day^2
Epoch rev:           66178
Checksum:              294

